| time (UTC) | temp F | wind direction | speed knots | gust knots | rain 1hr in | rain 24hr in | rain mn in | humidity % | barometer mb |
| 20260503184215 | 61 | 338 | 0.0 | 0.0 | 0.00 | 0.00 | 0.00 | 81 | 990.5 |
| 20260503183530 | 61 | 338 | 0.0 | 0.0 | 0.00 | 0.00 | 0.00 | 81 | 990.4 |
| 20260503174215 | 62 | 90 | 0.0 | 0.0 | 0.00 | 0.00 | 0.00 | 79 | 989.7 |
| 20260503173530 | 62 | 90 | 0.0 | 0.0 | 0.00 | 0.00 | 0.00 | 79 | 989.8 |
| 20260503070302 | 69 | 338 | 0.0 | 0.0 | 0.00 | 0.00 | 0.00 | 74 | 992.2 |
| 20260503060302 | 56 | 338 | 0.0 | 0.0 | 0.00 | 0.00 | 0.00 | 90 | 992.3 |
| 20260503053527 | 55 | 338 | 0.0 | 0.0 | 0.00 | 0.00 | 0.00 | 90 | 992.0 |
| 20260503050302 | 55 | 338 | 0.0 | 0.0 | 0.00 | 0.00 | 0.00 | 90 | 992.0 |
| 20260503043529 | 55 | 338 | 0.0 | 0.0 | 0.00 | 0.00 | 0.00 | 90 | 991.9 |
| 20260503040301 | 55 | 338 | 0.0 | 0.0 | 0.00 | 0.00 | 0.00 | 90 | 991.9 |
| 20260503033528 | 55 | 68 | 0.0 | 0.0 | 0.00 | 0.00 | 0.00 | 89 | 992.0 |
| 20260503030301 | 55 | 68 | 0.0 | 0.0 | 0.00 | 0.00 | 0.00 | 89 | 992.2 |
| 20260503023528 | 56 | 0 | 0.0 | 0.0 | 0.00 | 0.00 | 0.00 | 89 | 992.1 |
| 20260503020301 | 56 | 135 | 0.0 | 0.0 | 0.00 | 0.00 | 0.00 | 88 | 992.7 |
| 20260503013528 | 57 | 68 | 0.0 | 0.0 | 0.00 | 0.00 | 0.00 | 88 | 992.7 |
| 20260503010300 | 57 | 112 | 0.0 | 0.0 | 0.00 | 0.00 | 0.00 | 88 | 993.1 |
| 20260503003527 | 57 | 45 | 0.0 | 0.0 | 0.00 | 0.00 | 0.00 | 88 | 993.0 |
| 20260503000301 | 58 | 45 | 0.0 | 0.0 | 0.00 | 0.00 | 0.00 | 88 | 993.2 |
| 20260502233528 | 58 | 112 | 0.0 | 0.0 | 0.00 | 0.00 | 0.00 | 87 | 993.3 |
| 20260502230301 | 59 | 112 | 0.0 | 0.0 | 0.00 | 0.00 | 0.00 | 87 | 993.2 |
| 20260502224331 | 59 | 112 | 0.0 | 0.0 | 0.00 | 0.00 | 0.00 | 87 | 993.3 |
| 20260502223527 | 59 | 112 | 0.0 | 0.0 | 0.00 | 0.00 | 0.00 | 87 | 993.3 |
| 20260502214330 | 59 | 135 | 0.0 | 0.0 | 0.00 | 0.00 | 0.00 | 87 | 993.1 |
| 20260502213527 | 59 | 135 | 0.0 | 0.0 | 0.00 | 0.00 | 0.00 | 87 | 993.1 |
| 20260502204329 | 60 | 68 | 0.0 | 0.0 | 0.00 | 0.00 | 0.00 | 85 | 993.0 |
| 20260502203526 | 60 | 68 | 0.0 | 0.0 | 0.00 | 0.00 | 0.00 | 85 | 993.0 |
| 20260502194329 | 62 | 158 | 0.0 | 0.0 | 0.00 | 0.00 | 0.00 | 85 | 992.7 |
| 20260502193526 | 62 | 158 | 0.0 | 0.0 | 0.00 | 0.00 | 0.00 | 84 | 992.7 |